SPACEBEE-99 (48946 NORAD) Tracking and Keplerian Element Data

This shows tracking and keplerian element data for the satellite.

Feedback or suggestion? Click here.




ElementValue
Catalog48946
NameSPACEBEE-99
Epoch Orbit1396
Epoch Day269.08099831
Epoch Year2021
RAAN36.7462
Inclination97.5198
Eccentricity0.0016364
Argument of Perigee298.1892
Mean Anonmoly61.7687
Mean Motion15.14634407
Decay Rate7.532E-05
L11 48946U 21059BV 21269.08099831 .00007532 00000-0 40978-3 0 9994
L22 48946 97.5198 36.7462 0016364 298.1892 61.7687 15.14634407 13968

Live tracking and technical data element details for SPACEBEE-99 (NORAD 48946). SPACEBEE-99 can be tracked NOW for your location showing map with azimuth and elevation plus other details from your city location.

Track the satellite on the map from your city or location and see movement details for azimuth, elevation, latitude, longitude, range, height, and movement on the map or in text.







IsCatalogInMostPopularTable: catalog: 48946, numindb: 15
Update: records affected: 1



GetName: 48946 SPACEBEE-99

Hit Count: updated at: Sun, 26 Sep 2021 16:16:01 GMT